{"data":{"norad_id":49214,"epoch":"2026-05-25T04:35:22.582176Z","epoch_age_seconds":68817,"freshness":"FRESH","line1":"1 49214U 21083AE  26145.19123359  .00000212  00000+0  54660-3 0  9993","line2":"2 49214  87.8953 324.8033 0001810 103.5454 256.5877 13.13468331227911","mean_motion":13.13468331,"eccentricity":0.000181,"inclination_deg":87.8953,"raan_deg":324.8033,"arg_perigee_deg":103.5454,"mean_anomaly_deg":256.5877,"bstar":0.0005466,"rev_number":22791,"period_min":109.63340082236,"perigee_km":1208.3984162729,"apogee_km":1211.1452392685,"semimajor_km":7587.9088277707,"source":"CELESTRAK","updated_at":"2026-05-25T13:38:22.517453Z"}}